カタログに戻る

COSMOS 2251 DEB

運用中LEO
NORAD 33757·DEBRIS·🇷🇺 Russia

打ち上げ Jun 16, 1993 から Plesetsk Cosmodrome

Loading…

次のパス (今後24時間)

TLE

最新Source: Space-Track

元期: Sep 14, 2026, 05:57 UTC

1 33757U 93036E   26257.24809866  .00000054  00000-0  29270-4 0  9994
2 33757  74.0376 180.6369 0013955 134.7194  17.4274 14.32637480919416

AllMySatでCOSMOS 2251 DEBをリアルタイム追跡

Download on the App Store